This demonstration page uses our WeatherBlox Daily Observations layout. Learn more.

Left ArrowRight Arrow

39.92423, -83.80882

Hourly Observations for March 1, 2016

Temp ( °F °C ) Dew Point ( °F °C ) Humidity (%) Winds ( mph kmh ) Pressure ( in mb ) Visibility ( mi km ) Precip ( " mm )
12:56 am 00:56 Clear 33 0.5 30 -1.1 89 89 SE 6 9 30.04 1017 10 16 N/A
1:56 am 01:56 Clear 32 undefined 30 -1.1 92 92 SE 6 9 30.01 1016 10 16 N/A
2:56 am 02:56 Clear 33 0.5 29 -1.6 86 86 SE 7 11 29.98 1015 10 16 N/A
3:56 am 03:56 Clear 32 undefined 29 -1.6 89 89 ESE 6 9 29.96 1015 10 16 N/A
4:56 am 04:56 Clear 32 undefined 28 -2.2 85 85 ESE 6 9 29.94 1014 10 16 N/A
5:56 am 05:56 Clear 30 -1.1 28 -2.2 92 92 ESE 6 9 29.96 1015 10 16 N/A
6:56 am 06:56 Clear 28 -2.2 27 -2.7 96 96 ESE 7 11 29.94 1014 10 16 N/A
7:56 am 07:56 Sunny 38 3.3 32 undefined 79 79 SE 8 13 29.92 1013 10 16 N/A
8:56 am 08:56 Sunny 41 5 34 1.1 76 76 SSE 10 17 29.89 1012 10 16 N/A
9:56 am 09:56 Sunny 46 7.7 36 2.2 68 68 SSE 10 17 29.83 1010 10 16 N/A
10:56 am 10:56 Partly Cloudy 51 10.5 37 2.7 59 59 SSE 9 15 29.79 1009 10 16 N/A
11:56 am 11:56 Cloudy 50 10 40 4.4 68 68 SSE 8 13 29.75 1007 10 16 N/A
12:41 pm 12:41 Mostly Cloudy with Nearby Thunderstorms 52 11 43 6 72 72 SSE 7 11 29.68 1005 10 16 N/A
12:56 pm 12:56 Cloudy with Nearby Thunderstorms 51 10.5 45 7.2 80 80 WSW 8 13 29.70 1006 10 16 N/A
1:10 pm 13:10 Cloudy 50 10 43 6 76 76 W 13 20 29.68 1005 10 16 N/A
1:56 pm 13:56 Cloudy with Light Rain 47 8.3 43 6.1 86 86 S 6 9 29.67 1005 6 10 0.01 0.25
2:10 pm 14:10 Cloudy with Light Rain 46 8 45 7 93 93 SSW 9 15 29.65 1004 3 4 0.04 1.02
2:22 pm 14:22 Cloudy with Light Rain 46 8 45 7 93 93 S 6 9 29.62 1003 3 5 0.06 1.52
2:35 pm 14:35 Cloudy with Light Rain 46 8 45 7 93 93 S 7 11 29.62 1003 2 3 0.10 2.54
2:56 pm 14:56 Mostly Cloudy with Light Rain 47 8.3 46 7.7 96 96 S 9 15 29.61 1003 2 3 0.15 3.81
3:04 pm 15:04 Mostly Cloudy with Light Rain 46 8 46 8 100 100 S 9 15 29.59 1002 2 3 0.02 0.51
3:12 pm 15:12 Mostly Cloudy with Light Rain 46 8 46 8 100 100 S 9 15 29.59 1002 2 3 0.04 1.02
3:30 pm 15:30 Cloudy with Light Rain 48 9 48 9 100 100 S 10 17 29.59 1002 4 6 0.07 1.78
3:56 pm 15:56 Cloudy with Light Rain 49 9.4 48 8.8 96 96 S 15 24 29.57 1002 7 11 0.09 2.29
4:56 pm 16:56 Cloudy 50 10 49 9.4 96 96 SW 18 30 29.56 1001 10 16 N/A
5:20 pm 17:20 Cloudy 50 10 48 9 94 94 SW 22 35 29.56 1001 10 16 N/A
5:56 pm 17:56 Cloudy with Light Rain 47 8.3 44 6.6 89 89 WSW 22 35 29.59 1002 6 10 0.01 0.25
6:11 pm 18:11 Cloudy with Light Rain 46 8 45 7 93 93 WSW 21 33 29.59 1002 6 10 N/A
6:56 pm 18:56 Cloudy 43 6.1 39 3.8 85 85 W 36 57 29.66 1004 10 16 N/A
7:08 pm 19:08 Cloudy 39 4 36 2 87 87 W 28 44 29.68 1005 10 16 N/A
7:56 pm 19:56 Cloudy 35 1.6 32 undefined 89 89 W 31 50 29.74 1007 10 16 N/A
8:03 pm 20:03 Cloudy 34 1 30 -1 87 87 W 33 54 29.77 1008 10 16 N/A
8:15 pm 20:15 Cloudy 34 1 28 -2 81 81 W 29 46 29.77 1008 10 16 N/A
8:56 pm 20:56 Cloudy 30 -1.1 25 -3.8 82 82 W 26 43 29.82 1010 10 16 N/A
9:56 pm 21:56 Cloudy 27 -2.7 21 -6.1 78 78 W 28 44 29.88 1012 10 16 N/A
10:56 pm 22:56 Cloudy 26 -3.3 19 -7.2 75 75 W 20 31 29.92 1013 10 16 N/A
11:56 pm 23:56 Cloudy 25 -3.8 18 -7.7 75 75 WNW 18 30 29.96 1015 10 16 N/A

Powered by AerisWeather